{"data":{"norad_id":67872,"epoch":"2026-09-19T22:04:01.895232Z","epoch_age_seconds":113518,"freshness":"FRESH","line1":"1 67872U 26034Y   26262.91946638  .00014221  00000+0  46889-3 0  9996","line2":"2 67872  53.1608  20.6066 0001024  94.9556 265.1562 15.31717869 33797","mean_motion":15.31717869,"eccentricity":0.0001024,"inclination_deg":53.1608,"raan_deg":20.6066,"arg_perigee_deg":94.9556,"mean_anomaly_deg":265.1562,"bstar":0.00046889,"rev_number":3379,"period_min":94.012091204506,"perigee_km":469.98540963445,"apogee_km":471.38804873418,"semimajor_km":6848.8237291843,"source":"CELESTRAK","updated_at":"2026-09-20T09:00:43.693102Z"}}